Location: Korczew
(51.3586°N, 19.4491°E)
Time: 07:10:55
(UTC+00:00)

Cosmos 2333 - Pass Details

Date: 19 May 2025
Orbit: 830 x 863 km, 70.9° (Epoch: 16 June)

Event Time Altitude Azimuth Distance (km) Brightness Sun altitude
Rises 22:22:12 0° 329° (NNW) 3,422 8.5 -18.6°
Reaches altitude 10° 22:24:40 10° 331° (NNW) 2,478 7.6 -18.6°
Maximum altitude 22:30:22 78° 58° (ENE) 863 4.2 -18.6°
Enters shadow 22:33:38 26° 142° (SE) 1,584 5.2 -18.7°
